Regional Weather Roundup
Issued by NWS Cleveland, OH

Home | Current Version | Previous Version | Text Only | Print | Product List | Glossary Off
Versions: 1 2 3 4 5 6 7 8 9 10 11 12 13 14 15 16 17 18 19 20 21 22 23 24 25 26 27 28 29 30 31 32 33 34 35 36 37 38 39 40 41 42 43 44 45 46 47 48 49 50

596
ASUS41 KCLE 251402
RWRCLE
OHIO REGIONAL WEATHER ROUNDUP
NATIONAL WEATHER SERVICE CLEVELAND, OH
900 AM EST SUN FEB 25 2018

NOTE: "FAIR" INDICATES FEW OR NO CLOUDS BELOW 12,000 FEET WITH NO
SIGNIFICANT WEATHER AND/OR OBSTRUCTIONS TO VISIBILITY.

OHZ001>008-015>018-024>027-034-035-043-044-251500-
   NORTHWEST OHIO

CITY           SKY/WX    TMP DP  RH WIND       PRES   REMARKS
DEFIANCE       CLOUDY    38  31  76 SW17G29   29.85R
FINDLAY        FAIR      41  32  70 W25G32    29.83R
TOLEDO EXPRESS FAIR      38  32  79 W21G33    29.81R
TOLEDO EXEC    FAIR      39  31  72 SW21G29   29.82R
LIMA           PTSUNNY   40  35  83 W22G29    29.86R
$$

OHZ009>014-019>023-028>033-038-089-251500-
   NORTHEAST OHIO

CITY           SKY/WX    TMP DP  RH WIND       PRES   REMARKS
CLE-HOPKINS    PTSUNNY   47  38  71 W30G39    29.82R
CLE-LAKEFRONT  FAIR      48  39  71 SW28G37   29.79R
CUY CO. ARPT   PTSUNNY   50  43  76 W18       29.78R
LORAIN-ELYRIA  FAIR      45  34  65 W24G36    29.81R
ASHTABULA        N/A    N/A N/A N/A MISG      29.75R
AKRON-CANTON   CLOUDY    52  41  66 W21G28    29.80R
WOOSTER        FAIR      47  40  76 W17G29    29.83R
MANSFIELD      FAIR      44  36  73 SW13G29   29.84R
YOUNGSTOWN     CLOUDY    55  44  66 SW23G36   29.75R
$$

OHZ042-051>053-060>062-070>072-077>081-251500-
  SOUTHWEST OHIO

CITY           SKY/WX    TMP DP  RH WIND       PRES   REMARKS
CINC-COVINGTON CLOUDY    45  37  73 W8        29.97R
CINC-LUNKEN    FAIR      47  39  74 W14       29.99R
HAMILTON       FAIR      47  39  74 W8        29.97R
DAYTON         PTSUNNY   43  37  79 W17       29.92R
WRIGHT-PAT AFB PTSUNNY   44  36  73 W14       29.92R
DAYTON GENERAL FAIR      45  37  73 W12       29.93R
WILMINGTON     FAIR      45  39  79 W15G24    29.94R
$$

OHZ036-037-039>041-045>050-054>059-063>069-073>076-082>088-251500-
  CENTRAL AND SOUTHEAST OHIO

CITY           SKY/WX    TMP DP  RH WIND       PRES   REMARKS
COLUMBUS       CLOUDY    48  42  80 W18       29.90R
OSU AIRPORT    FAIR      46  42  86 W13       29.90R
BOLTON FIELD   SUNNY     46  39  76 W14G20    29.91R
RICKENBACK AFB FAIR      47  41  78 W16G24    29.92R
NEWARK         FAIR      50  41  71 W15G24    29.88R
MARION         FAIR      43  35  73 W18G26    29.87
LANCASTER      FAIR      50  42  74 W10G17    29.91R
ZANESVILLE     PTSUNNY   55  45  68 W16G24    29.87R
NEW PHILLY     NOT AVBL
$$




USA.gov is the U.S. government's official web portal to all federal, state and local government web resources and services.